sat.trackr.live / text

‹ back to catalog

STARLINK-3741

NORAD 52619 · 2022-052X

PAYLOAD ACTIVE UNKNOWN

§ Identity

Operator
Country
US
Launch date
2022-05-14
Launch site
AFETR
Launch vehicle
Mass (kg)
RCS (m²)

Purposes: comms

External: N2YO · Heavens-Above · Gunter

§ Orbital elements

Epoch: 2026-05-25T02:47:16.884096Z

Period
95.44 min
Inclination
53.2147°
Eccentricity
0.0001246
Mean motion
15.08846219 rev/d
Perigee alt
538.9 km
Apogee alt
540.6 km
Semi-major
6,917.9 km
B*
-8.2965e-5
RAAN
286.0175°
Arg perigee
87.3849°
Mean anomaly
272.7286°
Rev number
22,252

§ Raw data

STARLINK-37411 52619U 22052X   26145.11616764 -.00001608  00000+0 -82965-4 0  99942 52619  53.2147 286.0175 0001246  87.3849 272.7286 15.08846219222529

JSON: /api/v1/satellites/52619 · /tle

For live sub-satellite position, see the globe view (requires WebGL).

§ Visibility from observer

Set your observer location to see the next 7 days of passes ≥ 10°. The values pass through the URL so the page stays shareable.

No JS? Fill the form by hand. The geolocation button needs JavaScript.